Cosmos 1220 - Orbit

View from above orbital plane
View from above orbital plane
View from above satellite
View from above satellite

Ground track
Ground track

The orbit data is extracted from the following two-line orbital elements,

1 12054U 80089A   13139.82135784  .00026994  00000-0  38499-3 0  2610
2 12054 064.9597 266.7215 0045474 278.8950 243.1405 15.54992602687829
Epoch (UTC): 19 May 2013 19:42:45
Eccentricity: 0.0045474
inclination: 64.9597°
perigee height: 371 km
apogee height: 433 km
right ascension of ascending node: 266.7215°
argument of perigee: 278.8950°
revolutions per day: 15.54992602
mean anomaly at epoch: 243.1405°
orbit number at epoch: 68782

The dashed part of the orbit path shows where the satellite is in the earth's shadow,  

Developed and maintained by Chris Peat, Heavens-Above GmbH. Please read the updated FAQ before sending e-mail. Imprint. DLR